This demonstration page uses our WeatherBlox Daily Observations layout. Learn more.

39.29038, -76.61219

Hourly Observations for July 13, 2019

Temp ( °F °C ) Dew Point ( °F °C ) Humidity (%) Winds ( mph kmh ) Pressure ( in mb ) Visibility ( mi km ) Precip ( " mm )
12:54 am 00:54 undefined 80 26.7 62 16.7 54 54 undefined N/A 29.88 1012 N/A 0 0
1:54 am 01:54 undefined 79 26.1 62 16.7 56 56 undefined N/A 29.88 1012 N/A 0 0
2:54 am 02:54 undefined 78 25.6 61 16.1 56 56 undefined N/A 29.88 1012 N/A 0 0
3:54 am 03:54 undefined 77 25 62 16.7 60 60 undefined N/A 29.91 1013 N/A 0 0
4:54 am 04:54 undefined 75 23.9 61 16.1 62 62 undefined N/A 29.91 1013 N/A 0 0
5:54 am 05:54 undefined 75 23.9 60 15.6 60 60 undefined N/A 29.94 1014 N/A 0 0
6:54 am 06:54 undefined 76 24.4 61 16.1 60 60 undefined N/A 29.94 1014 N/A 0 0
7:54 am 07:54 undefined 79 26.1 61 16.1 54 54 undefined N/A 29.97 1015 N/A 0 0
8:54 am 08:54 undefined 81 27.2 61 16.1 51 51 undefined N/A 29.97 1015 N/A 0 0
9:54 am 09:54 undefined 83 28.3 61 16.1 48 48 undefined N/A 29.97 1015 N/A 0 0
10:54 am 10:54 undefined 84 28.9 60 15.6 44 44 undefined N/A 29.97 1015 N/A 0 0
11:54 am 11:54 undefined 86 30 62 16.7 45 45 undefined N/A 29.97 1015 N/A 0 0
12:54 pm 12:54 undefined 88 31.1 63 17.2 43 43 undefined N/A 29.97 1015 N/A 0 0
1:54 pm 13:54 undefined 89 31.7 63 17.2 42 42 undefined N/A 29.94 1014 N/A 0 0
2:54 pm 14:54 undefined 90 32.2 65 18.3 44 44 undefined N/A 29.94 1014 N/A 0 0
3:54 pm 15:54 undefined 91 32.8 63 17.2 39 39 undefined N/A 29.91 1013 N/A 0 0
4:54 pm 16:54 undefined 90 32.2 64 17.8 42 42 undefined N/A 29.91 1013 N/A 0 0
5:54 pm 17:54 undefined 88 31.1 63 17.2 43 43 undefined N/A 29.91 1013 N/A 0 0
6:54 pm 18:54 undefined 88 31.1 62 16.7 42 42 undefined N/A 29.91 1013 N/A 0 0
7:54 pm 19:54 undefined 87 30.6 62 16.7 43 43 undefined N/A 29.91 1013 N/A 0 0
8:54 pm 20:54 undefined 86 30 63 17.2 46 46 undefined N/A 29.94 1014 N/A 0 0
9:54 pm 21:54 undefined 85 29.4 64 17.8 50 50 undefined N/A 29.94 1014 N/A 0 0
10:54 pm 22:54 undefined 84 28.9 65 18.3 53 53 undefined N/A 29.94 1014 N/A 0 0
11:54 pm 23:54 undefined 82 27.8 66 18.9 58 58 undefined N/A 29.94 1014 N/A 0 0

Powered by AerisWeather